Location: Saluda
(35.2377°N, 82.3468°W)
Time: 15:16:15
(UTC+00:00)

SR - Pass Details

Date: 09 October 2022
Orbit: 577 x 875 km, 66.7° (Epoch: 28 November)

Event Time Altitude Azimuth Distance (km) Brightness Sun altitude
Rises 01:36:47 0° 239° (WSW) 3,426 ? -31.9°
Reaches altitude 10° 01:39:40 10° 252° (WSW) 2,511 ? -32.4°
Maximum altitude 01:44:29 26° 307° (NW) 1,654 ? -33.4°
Drops below altitude 10° 01:49:20 10° 3° (N) 2,514 ? -34.3°
Enters shadow 01:51:02 - 11° (NNE) 3,040 ? -34.6°
Sets 01:52:14 0° 16° (NNE) 3,431 - -34.9°
